N024SB PHLU-PHPA

Flight info

Callsign N024SB
Flight time 0h 34m
Altitude 11000
Route MKK V15 CKH T342 KUHIO T346 SHIGI V12 KEOLA T344 NAPUA V16 SOK
Aircraft PC24/M-SBDGIRWY/LB2

Departure

Time 2026-04-26 17:29
Airport Kalaupapa Airport (PHLU)

Arrival

Time 2026-04-26 18:03
Airport Port Allen Airport (PHPA)
Time Latitude Longitude Altitude Speed Heading
2026-04-26 17:21 21.20966 -156.97529 26 ft 0 kts
2026-04-26 17:27 21.20966 -156.97530 25 ft 0 kts
2026-04-26 17:27 21.20969 -156.97532 25 ft 2 kts 323°
2026-04-26 17:27 21.21020 -156.97546 26 ft 16 kts 46°
2026-04-26 17:27 21.21121 -156.97355 30 ft 38 kts 62°
2026-04-26 17:28 21.21243 -156.97117 28 ft 28 kts 63°
2026-04-26 17:28 21.21277 -156.97041 31 ft 1 kts 336°
2026-04-26 17:28 21.21276 -156.97054 33 ft 0 kts 238°
2026-04-26 17:28 21.21226 -156.97147 28 ft 57 kts 240°
2026-04-26 17:29 21.20866 -156.97847 47 ft 150 kts 240°
2026-04-26 17:29 21.20490 -156.98551 353 ft 177 kts 238°
2026-04-26 17:29 21.19953 -157.00186 934 ft 159 kts 265°
2026-04-26 17:29 21.19633 -157.01460 1399 ft 191 kts 247°
2026-04-26 17:30 21.19119 -157.02776 1903 ft 196 kts 244°
2026-04-26 17:30 21.18597 -157.04129 2404 ft 208 kts 245°
2026-04-26 17:30 21.18056 -157.05547 2889 ft 202 kts 246°
2026-04-26 17:30 21.17492 -157.07042 3415 ft 229 kts 245°
2026-04-26 17:31 21.16855 -157.08718 3952 ft 258 kts 246°
2026-04-26 17:31 21.16158 -157.10552 4486 ft 274 kts 246°
2026-04-26 17:31 21.15445 -157.12434 5005 ft 275 kts 247°
2026-04-26 17:31 21.14732 -157.14317 5503 ft 273 kts 247°
2026-04-26 17:32 21.14197 -157.16280 5984 ft 276 kts 262°
2026-04-26 17:32 21.14196 -157.18318 6473 ft 281 kts 277°
2026-04-26 17:32 21.14635 -157.20343 7124 ft 280 kts 284°
2026-04-26 17:32 21.15088 -157.22385 7844 ft 282 kts 283°
2026-04-26 17:33 21.15546 -157.24464 8574 ft 290 kts 283°
2026-04-26 17:33 21.16022 -157.26561 9325 ft 291 kts 284°
2026-04-26 17:33 21.16503 -157.28684 10076 ft 294 kts 284°
2026-04-26 17:34 21.17489 -157.33076 11019 ft 321 kts 284°
2026-04-26 17:34 21.18023 -157.35456 11071 ft 333 kts 284°
2026-04-26 17:34 21.18560 -157.37855 11078 ft 337 kts 284°
2026-04-26 17:34 21.19109 -157.40299 11076 ft 338 kts 284°
2026-04-26 17:35 21.19675 -157.42739 11071 ft 337 kts 286°
2026-04-26 17:35 21.20299 -157.45166 11070 ft 339 kts 285°
2026-04-26 17:35 21.20890 -157.47603 11070 ft 337 kts 285°
2026-04-26 17:35 21.21483 -157.50030 11069 ft 337 kts 286°
2026-04-26 17:36 21.22091 -157.52463 11070 ft 338 kts 285°
2026-04-26 17:36 21.22699 -157.54894 11068 ft 338 kts 286°
2026-04-26 17:36 21.23302 -157.57331 11068 ft 339 kts 286°
2026-04-26 17:36 21.23897 -157.59738 11068 ft 338 kts 285°
2026-04-26 17:37 21.24501 -157.62172 11068 ft 338 kts 286°
2026-04-26 17:37 21.25105 -157.64613 11068 ft 339 kts 286°
2026-04-26 17:37 21.25710 -157.67057 11069 ft 338 kts 285°
2026-04-26 17:38 21.26381 -157.72014 11055 ft 339 kts 267°
2026-04-26 17:38 21.26184 -157.74533 11078 ft 340 kts 265°
2026-04-26 17:38 21.25993 -157.77058 11083 ft 340 kts 266°
2026-04-26 17:38 21.25798 -157.79591 11086 ft 341 kts 265°
2026-04-26 17:39 21.25604 -157.82087 11088 ft 340 kts 266°
2026-04-26 17:39 21.25720 -157.84602 11085 ft 338 kts 280°
2026-04-26 17:39 21.26111 -157.87086 11087 ft 339 kts 279°
2026-04-26 17:39 21.26448 -157.89589 11089 ft 339 kts 279°
2026-04-26 17:40 21.26802 -157.92087 11088 ft 339 kts 280°
2026-04-26 17:40 21.27048 -157.93741 11090 ft 339 kts 280°
2026-04-26 17:40 21.27538 -157.97079 11087 ft 338 kts 279°
2026-04-26 17:40 21.27894 -157.99572 11088 ft 339 kts 280°
2026-04-26 17:41 21.28249 -158.02039 11085 ft 340 kts 280°
2026-04-26 17:41 21.28609 -158.04541 11084 ft 339 kts 279°
2026-04-26 17:41 21.28969 -158.07033 11084 ft 338 kts 279°
2026-04-26 17:41 21.29325 -158.09517 11083 ft 338 kts 280°
2026-04-26 17:42 21.29684 -158.12014 11082 ft 339 kts 279°
2026-04-26 17:42 21.30042 -158.14505 11082 ft 337 kts 279°
2026-04-26 17:42 21.30379 -158.16992 11082 ft 337 kts 277°
2026-04-26 17:42 21.30364 -158.19509 11088 ft 338 kts 268°
2026-04-26 17:43 21.30306 -158.22053 11086 ft 341 kts 271°
2026-04-26 17:43 21.30291 -158.24561 11084 ft 342 kts 270°
2026-04-26 17:43 21.30247 -158.27118 11088 ft 342 kts 270°
2026-04-26 17:43 21.30187 -158.29658 11086 ft 342 kts 269°
2026-04-26 17:44 21.30137 -158.32202 11090 ft 339 kts 269°
2026-04-26 17:44 21.30093 -158.34733 11084 ft 341 kts 270°
2026-04-26 17:44 21.30045 -158.37279 11083 ft 341 kts 270°
2026-04-26 17:44 21.29994 -158.39824 11082 ft 343 kts 270°
2026-04-26 17:45 21.29945 -158.42342 11079 ft 342 kts 269°
2026-04-26 17:45 21.29895 -158.44888 11078 ft 342 kts 270°
2026-04-26 17:45 21.29966 -158.47431 11064 ft 341 kts 279°
2026-04-26 17:45 21.30553 -158.49878 11065 ft 338 kts 291°
2026-04-26 17:46 21.31602 -158.52121 11067 ft 336 kts 303°
2026-04-26 17:46 21.32853 -158.54240 11071 ft 337 kts 303°
2026-04-26 17:46 21.34093 -158.56379 11074 ft 338 kts 303°
2026-04-26 17:46 21.35338 -158.58513 11072 ft 337 kts 303°
2026-04-26 17:47 21.36584 -158.60638 11069 ft 337 kts 303°
2026-04-26 17:47 21.37410 -158.62050 11069 ft 336 kts 303°
2026-04-26 17:47 21.39051 -158.64869 11068 ft 337 kts 303°
2026-04-26 17:47 21.40294 -158.67000 11071 ft 336 kts 303°
2026-04-26 17:48 21.41535 -158.69127 11072 ft 337 kts 303°
2026-04-26 17:48 21.42778 -158.71260 11074 ft 337 kts 303°
2026-04-26 17:48 21.44019 -158.73391 11071 ft 336 kts 303°
2026-04-26 17:48 21.45260 -158.75524 11071 ft 337 kts 303°
2026-04-26 17:49 21.46505 -158.77663 11071 ft 338 kts 303°
2026-04-26 17:49 21.47752 -158.79805 11070 ft 339 kts 303°
2026-04-26 17:49 21.48983 -158.81922 11068 ft 338 kts 303°
2026-04-26 17:49 21.50227 -158.84062 11067 ft 338 kts 303°
2026-04-26 17:50 21.51469 -158.86201 11065 ft 338 kts 303°
2026-04-26 17:50 21.52717 -158.88345 11068 ft 339 kts 303°
2026-04-26 17:50 21.53966 -158.90492 11068 ft 340 kts 303°
2026-04-26 17:50 21.55221 -158.92646 11070 ft 340 kts 303°
2026-04-26 17:51 21.56470 -158.94791 11070 ft 339 kts 303°
2026-04-26 17:51 21.57717 -158.96941 11070 ft 339 kts 303°
2026-04-26 17:51 21.58964 -158.99087 11069 ft 338 kts 303°
2026-04-26 17:51 21.60207 -159.01227 11072 ft 338 kts 303°
2026-04-26 17:52 21.61436 -159.03344 11069 ft 338 kts 303°
2026-04-26 17:52 21.62681 -159.05489 11069 ft 338 kts 303°
2026-04-26 17:52 21.63913 -159.07613 11066 ft 327 kts 303°
2026-04-26 17:52 21.65071 -159.09613 10945 ft 306 kts 303°
2026-04-26 17:53 21.66171 -159.11510 10671 ft 294 kts 303°
2026-04-26 17:53 21.67233 -159.13339 10403 ft 282 kts 303°
2026-04-26 17:53 21.68258 -159.15108 10133 ft 276 kts 303°
2026-04-26 17:54 21.70259 -159.18563 9593 ft 273 kts 303°
2026-04-26 17:54 21.71266 -159.20302 9311 ft 275 kts 303°
2026-04-26 17:54 21.72276 -159.22050 9021 ft 276 kts 303°
2026-04-26 17:54 21.73291 -159.23805 8531 ft 273 kts 302°
2026-04-26 17:55 21.74280 -159.25516 8034 ft 266 kts 302°
2026-04-26 17:55 21.75241 -159.27185 7551 ft 260 kts 302°
2026-04-26 17:55 21.76185 -159.28824 7064 ft 255 kts 303°
2026-04-26 17:55 21.77112 -159.30435 6589 ft 252 kts 303°
2026-04-26 17:56 21.78032 -159.32030 6097 ft 249 kts 303°
2026-04-26 17:56 21.79833 -159.35155 5141 ft 246 kts 303°
2026-04-26 17:57 21.81626 -159.38267 4133 ft 244 kts 304°
2026-04-26 17:57 21.82520 -159.39815 3650 ft 243 kts 303°
2026-04-26 17:57 21.83372 -159.41300 3576 ft 222 kts 303°
2026-04-26 17:57 21.84165 -159.42679 3481 ft 216 kts 304°
2026-04-26 17:58 21.86518 -159.46764 2739 ft 214 kts 303°
2026-04-26 17:59 21.88079 -159.49477 2247 ft 210 kts 305°
2026-04-26 17:59 21.88842 -159.50802 1997 ft 206 kts 304°
2026-04-26 17:59 21.89581 -159.52088 1883 ft 195 kts 304°
2026-04-26 17:59 21.90216 -159.53308 1912 ft 178 kts 292°
2026-04-26 18:00 21.90618 -159.54522 1858 ft 169 kts 290°
2026-04-26 18:00 21.90878 -159.55752 1714 ft 171 kts 281°
2026-04-26 18:00 21.90979 -159.57041 1508 ft 175 kts 273°
2026-04-26 18:00 21.90593 -159.58200 1293 ft 174 kts 211°
2026-04-26 18:01 21.89490 -159.58625 1192 ft 162 kts 194°
2026-04-26 18:01 21.88407 -159.58706 1006 ft 160 kts 158°
2026-04-26 18:01 21.87637 -159.58065 1075 ft 125 kts 120°
2026-04-26 18:01 21.87434 -159.57195 1122 ft 122 kts 76°
2026-04-26 18:02 21.88017 -159.56549 965 ft 131 kts 18°
2026-04-26 18:02 21.88305 -159.56514 887 ft 128 kts 359°
2026-04-26 18:02 21.89180 -159.57656 580 ft 133 kts 283°
2026-04-26 18:02 21.89402 -159.58636 316 ft 134 kts 284°
2026-04-26 18:03 21.89580 -159.59581 111 ft 123 kts 282°
2026-04-26 18:03 21.89708 -159.60411 9 ft 85 kts 279°
2026-04-26 18:03 21.89751 -159.60691 2 ft 2 kts 353°
2026-04-26 18:03 21.89724 -159.60522 9 ft 45 kts 99°
2026-04-26 18:04 21.89670 -159.60163 14 ft 30 kts 99°
2026-04-26 18:04 21.89729 -159.60047 15 ft 17 kts 23°
2026-04-26 18:04 21.89786 -159.60003 16 ft 0 kts 57°